Flag for Denmark

Past Weather in Næstved, Denmark — Yesterday and Last 2 Weeks

Now
50 °F

Cool.


Feels Like: 49 °F
Forecast: 68 / 55 °F
Wind: 3 mph from South

Location: Koebenhavn / Roskilde
Current Time: Sep 22, 2020 at 6:46:11 am
Latest Report: Sep 22, 2020 at 6:20 am
Visibility: N/A
Pressure29.89 "Hg
Humidity: 88%
Dew Point: 46 °F
Location of NæstvedLocation

Past Weather in Næstved — Graph

°F

Næstved Temperature Yesterday

Maximum temperature yesterday: 66 °F (at 3:20 pm)
Minimum temperature yesterday: 45 °F (at 1:50 am)
Average temperature yesterday: 55 °F

High & Low Weather Summary for the Past Weeks

 TemperatureHumidityPressure
High73 °F (Sep 14, 1:20 pm)100% (Sep 8, 8:20 am)30.45 "Hg (Sep 8, 8:20 am)
Low37 °F (Sep 18, 5:20 am)34% (Sep 18, 5:20 pm)29.86 "Hg (Sep 9, 2:20 pm)
Average57 °F80%30.13 "Hg
* Reported Sep 7 5:20 am — Sep 22 5:20 am, Næstved. Weather by CustomWeather, © 2020

Note: Actual official high and low records may vary slightly from our data, if they occured in-between our weather recording intervals... More about our weather records

Næstved Weather History for the Previous 24 Hours

Scroll right to see more
 ConditionsComfort  
Time TempWeatherWind HumidityBarometerVisibility
5:20 am
Tue, Sep 22
50 °FCool.No wind94%29.89 "Hg3 mi
4:50 am46 °FCool.2 mph93%29.92 "Hg5 mi
4:20 am48 °FCool.No wind100%29.92 "Hg4 mi
3:50 am48 °FLight fog.No wind100%29.92 "Hg1 mi
3:20 am48 °FFog.1 mph100%29.92 "Hg1 mi
2:50 am48 °FLight fog.1 mph100%29.92 "Hg1 mi
2:20 am48 °FFog.1 mph100%29.95 "Hg1 mi
1:50 am48 °FFog.3 mph100%29.95 "Hg1 mi
1:20 am48 °FFog.2 mph100%29.95 "Hg0 mi
12:50 am50 °FFog.1 mph100%29.95 "Hg0 mi
12:20 am50 °FFog.2 mph100%29.98 "Hg0 mi
11:50 pm
Mon, Sep 21
48 °FFog.3 mph100%29.98 "Hg0 mi
11:20 pm50 °FFog.2 mph100%29.98 "Hg0 mi
10:50 pm52 °FLight fog.2 mph100%29.98 "Hg0 mi
10:20 pm52 °FLight fog.2 mph100%29.98 "Hg1 mi
9:50 pm54 °FFog.2 mph94%30.01 "Hg1 mi
9:20 pm54 °FCool.1 mph94%30.01 "HgN/A
8:50 pm52 °FCool.3 mph94%30.01 "HgN/A
8:20 pm55 °FCool.3 mph88%30.01 "HgN/A
7:50 pm55 °FCool.5 mph88%30.01 "HgN/A
7:20 pm57 °FCool.2 mph94%30.01 "HgN/A
6:50 pm59 °FCool.3 mph88%30.01 "HgN/A
6:20 pm61 °FCool.5 mph83%30.01 "HgN/A
5:50 pm64 °FMild.7 mph56%30.01 "HgN/A
5:20 pm66 °FMild.7 mph56%30.01 "HgN/A
4:50 pm66 °FMild.6 mph56%30.04 "HgN/A
4:20 pm66 °FMild.7 mph56%30.04 "HgN/A
3:50 pm66 °FMild.6 mph52%30.04 "HgN/A
3:20 pm66 °FMild.6 mph52%30.07 "HgN/A
2:50 pm64 °FMild.6 mph56%30.07 "HgN/A
2:20 pm64 °FMild.3 mph64%30.07 "HgN/A
1:50 pm63 °FMild.6 mph68%30.07 "HgN/A
1:20 pm63 °FMild.7 mph73%30.07 "HgN/A
12:50 pm61 °FCool.5 mph77%30.09 "HgN/A
12:20 pm61 °FPassing clouds.7 mph83%30.09 "HgN/A
11:50 am57 °FPartly sunny.6 mph88%30.09 "HgN/A
11:20 am55 °FLow clouds.6 mph100%30.09 "Hg3 mi
10:50 am55 °FFog.5 mph100%30.09 "Hg2 mi
10:20 am55 °FFog.5 mph100%30.09 "Hg1 mi
9:50 am54 °FFog.5 mph100%30.09 "Hg0 mi
9:20 am52 °FFog.1 mph100%30.12 "Hg0 mi
8:50 am50 °FFog.1 mph100%30.12 "Hg0 mi
8:20 am48 °FFog.1 mph100%30.12 "Hg0 mi
7:50 am46 °FFog.1 mph100%30.12 "Hg0 mi
7:20 am46 °FFog.1 mph100%30.12 "Hg0 mi
6:50 am46 °FFog.1 mph100%30.12 "Hg0 mi
6:20 am48 °FFog.No wind100%30.12 "Hg0 mi
Weather by CustomWeather, © 2020

See weather overview